• In Belgium
  • List of Countries
  • For 7 days
  • Water Temperature
  • Satellite Maps
  • Weather Map
  • Weather Widgets
  • user-avatar
    Login

    Hourly Weather Canberra

    Today, 21 September, Thursday

    Time Temperature Precipitation Wind Pressure Humidity
    00:00 +6°C° 0 mm 1 mps 709 mmHg 84%
    01:00 +6°C° 0 mm 1 mps 709 mmHg 83%
    02:00 +6°C° 0 mm 1 mps 709 mmHg 81%
    03:00 +6°C° 0 mm 1 mps 709 mmHg 79%
    04:00 +6°C° 0 mm 1 mps 709 mmHg 77%
    05:00 +7°C° 0 mm 1 mps 709 mmHg 72%
    06:00 +7°C° 0 mm 1 mps 709 mmHg 67%
    07:00 +8°C° 0 mm 1 mps 709 mmHg 63%
    08:00 +12°C° 0 mm 2 mps 709 mmHg 54%
    09:00 +15°C° 0 mm 2 mps 709 mmHg 45%
    10:00 +18°C° 0 mm 2 mps 709 mmHg 38%
    11:00 +19°C° 0 mm 3 mps 709 mmHg 37%
    12:00 +20°C° 0 mm 3 mps 709 mmHg 36%
    13:00 +22°C° 0 mm 4 mps 708 mmHg 35%
    14:00 +21°C° 0 mm 4 mps 708 mmHg 38%
    15:00 +21°C° 0 mm 4 mps 707 mmHg 41%
    16:00 +20°C° 0 mm 4 mps 707 mmHg 45%
    17:00 +18°C° 0 mm 3 mps 707 mmHg 54%
    18:00 +15°C° 0 mm 2 mps 707 mmHg 64%
    19:00 +12°C° 0 mm 2 mps 707 mmHg 73%
    20:00 +12°C° 0 mm 2 mps 707 mmHg 73%
    21:00 +10°C° 0 mm 2 mps 707 mmHg 73%
    22:00 +11°C° 0 mm 1 mps 707 mmHg 73%
    23:00 +10°C° 0 mm 2 mps 707 mmHg 72%

    Tomorrow, 22 September, Friday

    Time Temperature Precipitation Wind Pressure Humidity
    00:00 +10°C° 0 mm 2 mps 707 mmHg 70%
    01:00 +10°C° 0 mm 2 mps 707 mmHg 69%
    02:00 +9°C° 0 mm 2 mps 706 mmHg 66%
    03:00 +9°C° 0 mm 2 mps 706 mmHg 63%
    04:00 +9°C° 0 mm 2 mps 706 mmHg 61%
    05:00 +10°C° 0 mm 2 mps 706 mmHg 59%
    06:00 +10°C° 0 mm 2 mps 706 mmHg 57%
    07:00 +12°C° 0 mm 2 mps 707 mmHg 56%
    08:00 +13°C° 0 mm 3 mps 707 mmHg 48%
    09:00 +17°C° 0 mm 3 mps 707 mmHg 41%
    10:00 +20°C° 0 mm 4 mps 707 mmHg 33%
    11:00 +22°C° 0 mm 4 mps 707 mmHg 32%
    12:00 +23°C° 0 mm 5 mps 707 mmHg 31%
    13:00 +25°C° 0 mm 5 mps 706 mmHg 29%
    14:00 +25°C° 0 mm 4 mps 706 mmHg 33%
    15:00 +23°C° 0 mm 4 mps 706 mmHg 36%
    16:00 +23°C° 0 mm 4 mps 705 mmHg 39%
    17:00 +20°C° 0 mm 3 mps 705 mmHg 48%
    18:00 +17°C° 0 mm 2 mps 705 mmHg 56%
    19:00 +15°C° 0 mm 1 mps 705 mmHg 65%
    20:00 +14°C° 0 mm 1 mps 705 mmHg 63%
    21:00 +13°C° 0 mm 1 mps 705 mmHg 62%
    22:00 +13°C° 0 mm 1 mps 705 mmHg 60%
    23:00 +13°C° 0 mm 1 mps 704 mmHg 57%

    Day after tomorrow, 23 September, Saturday

    Time Temperature Precipitation Wind Pressure Humidity
    00:00 +13°C° 0 mm 1 mps 704 mmHg 54%
    01:00 +13°C° 0 mm 1 mps 703 mmHg 51%
    02:00 +12°C° 0 mm 2 mps 703 mmHg 49%
    03:00 +12°C° 0 mm 2 mps 703 mmHg 47%
    04:00 +12°C° 0 mm 2 mps 703 mmHg 45%
    05:00 +12°C° 0 mm 2 mps 703 mmHg 46%
    06:00 +12°C° 0 mm 1 mps 703 mmHg 46%
    07:00 +13°C° 0 mm 1 mps 703 mmHg 47%
    08:00 +16°C° 0 mm 2 mps 703 mmHg 43%
    09:00 +19°C° 0 mm 3 mps 703 mmHg 39%
    10:00 +24°C° 0 mm 3 mps 703 mmHg 34%
    11:00 +25°C° 0 mm 4 mps 702 mmHg 33%
    12:00 +27°C° 0 mm 5 mps 701 mmHg 31%
    13:00 +28°C° 0 mm 6 mps 701 mmHg 30%
    14:00 +28°C° 0 mm 6 mps 700 mmHg 32%
    15:00 +28°C° 0 mm 6 mps 699 mmHg 33%
    16:00 +28°C° 0 mm 5 mps 698 mmHg 35%
    17:00 +26°C° 0.1 mm 5 mps 698 mmHg 41%
    18:00 +23°C° 0.1 mm 4 mps 698 mmHg 47%
    19:00 +21°C° 0.1 mm 3 mps 697 mmHg 53%
    20:00 +20°C° 0 mm 3 mps 697 mmHg 52%
    21:00 +19°C° 0 mm 3 mps 698 mmHg 51%
    22:00 +19°C° 0 mm 3 mps 698 mmHg 50%
    23:00 +17°C° 0 mm 3 mps 698 mmHg 57%

    24 September, Sunday

    Time Temperature Precipitation Wind Pressure Humidity
    00:00 +16°C° 0 mm 3 mps 698 mmHg 65%
    01:00 +14°C° 0 mm 2 mps 698 mmHg 72%
    02:00 +12°C° 0 mm 3 mps 698 mmHg 75%
    03:00 +11°C° 0 mm 3 mps 698 mmHg 77%
    04:00 +10°C° 0 mm 3 mps 698 mmHg 79%
    05:00 +10°C° 0 mm 3 mps 699 mmHg 78%
    06:00 +11°C° 0 mm 3 mps 699 mmHg 76%
    07:00 +11°C° 0 mm 4 mps 699 mmHg 75%
    08:00 +13°C° 0 mm 5 mps 699 mmHg 64%
    09:00 +15°C° 0 mm 7 mps 699 mmHg 54%
    10:00 +17°C° 0 mm 9 mps 699 mmHg 43%
    11:00 +17°C° 0 mm 9 mps 699 mmHg 41%
    12:00 +17°C° 0 mm 9 mps 699 mmHg 40%
    13:00 +18°C° 0 mm 9 mps 699 mmHg 38%
    14:00 +17°C° 0 mm 9 mps 699 mmHg 40%
    15:00 +16°C° 0 mm 9 mps 699 mmHg 42%
    16:00 +16°C° 0 mm 8 mps 699 mmHg 43%
    17:00 +15°C° 0 mm 7 mps 700 mmHg 47%
    18:00 +13°C° 0 mm 6 mps 700 mmHg 52%
    19:00 +12°C° 0 mm 5 mps 701 mmHg 56%
    20:00 +12°C° 0 mm 4 mps 701 mmHg 58%
    21:00 +11°C° 0 mm 4 mps 702 mmHg 60%
    22:00 +10°C° 0 mm 4 mps 702 mmHg 62%
    23:00 +10°C° 0 mm 4 mps 702 mmHg 64%

    25 September, Monday

    Time Temperature Precipitation Wind Pressure Humidity
    00:00 +8°C° 0 mm 4 mps 702 mmHg 66%
    01:00 +8°C° 0 mm 4 mps 702 mmHg 69%
    02:00 +7°C° 0 mm 4 mps 702 mmHg 70%
    03:00 +7°C° 0 mm 4 mps 702 mmHg 72%
    04:00 +7°C° 0 mm 4 mps 702 mmHg 74%
    05:00 +7°C° 0 mm 4 mps 703 mmHg 73%
    06:00 +7°C° 0 mm 4 mps 703 mmHg 73%
    07:00 +7°C° 0 mm 4 mps 703 mmHg 72%
    08:00 +9°C° 0 mm 5 mps 704 mmHg 65%
    09:00 +11°C° 0 mm 6 mps 704 mmHg 58%
    10:00 +14°C° 0 mm 7 mps 704 mmHg 51%
    11:00 +14°C° 0 mm 7 mps 704 mmHg 50%
    12:00 +14°C° 0 mm 7 mps 703 mmHg 48%
    13:00 +15°C° 0 mm 7 mps 703 mmHg 47%
    14:00 +14°C° 0 mm 7 mps 703 mmHg 49%
    15:00 +14°C° 0 mm 6 mps 703 mmHg 51%
    16:00 +14°C° 0 mm 6 mps 703 mmHg 53%
    17:00 +12°C° 0 mm 5 mps 704 mmHg 59%
    18:00 +11°C° 0 mm 3 mps 704 mmHg 66%
    19:00 +9°C° 0 mm 2 mps 704 mmHg 73%
    20:00 +8°C° 0 mm 2 mps 705 mmHg 76%
    21:00 +8°C° 0 mm 2 mps 705 mmHg 79%
    22:00 +7°C° 0 mm 2 mps 705 mmHg 82%
    23:00 +7°C° 0 mm 2 mps 705 mmHg 84%

    26 September, Tuesday

    Time Temperature Precipitation Wind Pressure Humidity
    00:00 +6°C° 0 mm 2 mps 705 mmHg 85%
    01:00 +6°C° 0 mm 2 mps 705 mmHg 87%
    02:00 +6°C° 0 mm 2 mps 705 mmHg 87%
    03:00 +4°C° 0 mm 3 mps 705 mmHg 88%
    04:00 +4°C° 0 mm 3 mps 705 mmHg 88%
    05:00 +5°C° 0 mm 3 mps 706 mmHg 83%
    06:00 +5°C° 0 mm 3 mps 706 mmHg 79%
    07:00 +5°C° 0 mm 3 mps 707 mmHg 74%
    08:00 +7°C° 0 mm 4 mps 707 mmHg 59%
    09:00 +11°C° 0 mm 4 mps 707 mmHg 43%
    10:00 +13°C° 0 mm 4 mps 708 mmHg 27%
    11:00 +14°C° 0 mm 4 mps 707 mmHg 26%
    12:00 +15°C° 0 mm 4 mps 707 mmHg 25%
    13:00 +17°C° 0 mm 4 mps 707 mmHg 24%
    14:00 +17°C° 0 mm 4 mps 707 mmHg 27%
    15:00 +17°C° 0 mm 4 mps 707 mmHg 30%
    16:00 +16°C° 0 mm 3 mps 707 mmHg 33%
    17:00 +12°C° 0 mm 3 mps 708 mmHg 45%
    18:00 +9°C° 0 mm 2 mps 708 mmHg 57%
    19:00 +7°C° 0 mm 1 mps 708 mmHg 69%
    20:00 +6°C° 0 mm 1 mps 708 mmHg 76%
    21:00 +5°C° 0 mm 1 mps 709 mmHg 83%
    22:00 +4°C° 0 mm 1 mps 709 mmHg 90%
    23:00 +4°C° 0 mm 1 mps 709 mmHg 92%
    Show more